Location: Branche des Alpilles
(43.6087°N, 4.6976°E)
Time: 11:31:17
(UTC+00:00)

N. Korean satellite - Visible Passes

Search period start: 28 September 2021 00:00
Search period end: 08 October 2021 00:00
Orbit: 449 x 498 km, 97.3° (Epoch: 27 September)

Date Brightness Start Highest point End Pass type
(mag) Time Alt. Az. Time Alt. Az. Time Alt. Az.
29 Sep 7.3 04:48:29 10° NNE 04:52:02 57° E 04:55:35 10° S visible
30 Sep 9.1 04:21:04 10° NE 04:24:07 25° E 04:27:09 10° SSE visible
01 Oct 10.0 03:54:35 10° ENE 03:56:04 12° E 03:57:33 10° ESE visible
02 Oct 6.8 04:58:05 10° NNE 05:01:42 78° ESE 05:05:20 10° S visible
03 Oct 8.5 04:30:29 10° NNE 04:33:47 33° E 04:37:06 10° SSE visible
04 Oct 9.8 04:03:27 10° NE 04:05:45 16° E 04:08:03 10° SE visible
05 Oct 6.5 05:07:37 10° N 05:11:16 78° WNW 05:14:54 10° SSW visible
06 Oct 7.9 04:39:50 10° NNE 04:43:21 44° E 04:46:51 10° S visible
07 Oct 9.4 04:12:30 10° NE 04:15:18 20° E 04:18:05 10° SE visible
